345  
ASUS41 KBOX 221110  
RWRBOX  
 
REGIONAL WEATHER ROUNDUP  
NATIONAL WEATHER SERVICE BOSTON/NORTON MA  
600 AM EST THU FEB 22 2024  
 
NOTE: "FAIR" INDICATES FEW OR NO CLOUDS BELOW 12,000 FEET WITH NO  
SIGNIFICANT WEATHER AND/OR S TO VISIBILITY
.  
 
MAZALL-221200-  
EASTERN MASSACHUSETTS  
 
CITY SKY/WX TMP DP RH WIND PRES REMARKS
 
BOSTON PTCLDY 27 22 81 SW5 30.16F WCI 22  
BEVERLY CLOUDY 24 21 88 CALM 30.16F  
LAWRENCE PTCLDY 21 17 84 CALM 30.17F  
BEDFORD CLEAR 18 14 84 CALM 30.15F  
NORWOOD CLEAR 19 13 77 CALM 30.16F  
MARSHFIELD CLOUDY 27 23 86 CALM 30.15F  
PLYMOUTH CLOUDY 24 21 88 CALM 30.14F  
TAUNTON CLEAR 17 11 77 CALM 30.15F  
NEW BEDFORD CLEAR 19 17 92 CALM 30.15F  

 
 
MAZALL-221200-  
CAPE COD AND THE ISLANDS  
 
CITY SKY/WX TMP DP RH WIND PRES REMARKS
 
FALMOUTH CLOUDY 16 14 93 NW5 30.15F WCI 9  
HYANNIS CLEAR 19 16 88 CALM 30.13F  
CHATHAM CLEAR 24 22 91 CALM 30.13F  
PROVINCETOWN MOCLDY 19 16 88 CALM 30.16F  
NANTUCKET PTCLDY 28 24 85 N3 30.12F  
MARTHAS VNYRD PTCLDY 18 16 92 NW6 30.15S WCI 10  

 
 
MAZALL-221200-  
CENTRAL AND WESTERN MASSACHUSETTS  
 
CITY SKY/WX TMP DP RH WIND PRES REMARKS
 
WORCESTER PTCLDY 21 18 88 SW6 30.08F WCI 13  
FITCHBURG CLEAR 19 14 81 CALM 30.14F  
ORANGE CLEAR 16 14 92 CALM 30.12F  
SPRINGFIELD MOCLDY 22 19 90 NW5 30.11F WCI 15  
WESTFIELD CLOUDY 23 19 85 CALM 30.14R  
NORTH ADAMS PTCLDY 26 19 74 E5 30.08F WCI 20  
PITTSFIELD CLOUDY 27 21 78 S3 30.03F  

 
 
RIZALL-221200-  
RHODE ISLAND  
 
CITY SKY/WX TMP DP RH WIND PRES REMARKS
 
PROVIDENCE CLEAR 20 19 96 W5 30.17F WCI 13  
NEWPORT CLEAR 20 18 92 CALM 30.15F  
BLOCK ISLAND CLOUDY 30 24 78 CALM 30.17S  
SMITHFIELD CLEAR 16 16 100 CALM 30.14F  
WESTERLY PTCLDY 22 17 81 CALM 30.16F  

 
 
CTZALL-221200-  
CONNECTICUT  
 
CITY SKY/WX TMP DP RH WIND PRES REMARKS
 
BRADLEY INTL MOCLDY 24 20 84 W3 30.15S  
HARTFORD MOCLDY 25 23 92 CALM 30.16S  
PLAINVILLE CLOUDY 21 20 96 CALM 30.15R  
BRIDGEPORT CLOUDY 32 26 78 CALM 30.16S  
DANBURY CLOUDY 28 21 75 CALM 30.13F  
GROTON PTCLDY 27 24 89 NE3 30.15F  
NEW HAVEN CLOUDY 30 26 85 CALM 30.15F  
CHESTER CLEAR 25 23 93 CALM 30.13F  
MERIDEN MOCLDY 21 17 84 CALM 30.16S  
WILLIMANTIC CLEAR 20 17 88 CALM 30.15F  
OXFORD CLOUDY 28 23 81 SW3 30.13R  

 
 
MEZ002-015-021-024-NHZ003-005-008-011-012-014-VTZ005-008-221200-  
NORTHERN NEW ENGLAND  
 
CITY SKY/WX TMP DP RH WIND PRES REMARKS
 
PORTLAND ME CLOUDY 30 23 75 W6 30.15F WCI 24  
BANGOR ME CLOUDY 27 20 75 S5 30.15F WCI 22  
CONCORD NH CLEAR 17 15 92 CALM 30.11F  
MANCHESTER NH CLEAR 21 18 88 CALM 30.12F  
NASHUA NH CLEAR 18 18 100 CALM 30.14F  
PORTSMOUTH NH PTCLDY 24 20 86 CALM 30.14F  
JAFFREY NH CLEAR 22 18 85 S5 30.07F WCI 16  
KEENE NH MOCLDY 18 16 93 CALM 30.11S  
BURLINGTON VT CLOUDY 33 23 66 S13 29.98F WCI 24  
MT. WASHINGTON PTCLDY 19 3 49 W32 N/A WCI 0  

 
 
NYZ052-076-221200-  
EASTERN NEW YORK  
 
CITY SKY/WX TMP DP RH WIND PRES REMARKS
 
ALBANY PTCLDY 30 22 72 SE6 30.07F WCI 24  
NEW YORK CITY MOCLDY 36 24 62 S6 30.15S WCI 31  

 
 
ANZALL-221200-  
MARINE OBSERVATIONS  
 
STATION/POSITION TIME TEMP WIND PRES VSBY WAVE
 
AIR SEA DIR/SP/G HT/PER  
(UTC) (F) (DEG/KT/KT) (MB) (MI) (FT/S)  
BOSTON BUOY 1050 32 40 CALM / 4 1020.6F 3/ 5  
BUZZARDS BAY 1000 31 10/ 5/ 6 1022.1F  
NANTUCKET SOUND 1050 33 37 20/ 8/ 10 1020.1F 1/ 5  
MASS BAY-STELLWA 0904 33 39 270/ 4/ 8 1022.5F 1 7/8 2/ 5  
ISLE OF SHOALS 1000 31 CALM / 1 1020.9F  
S OF BLOCK IS 1056 41 N/A 5/12  

 
   
.....................KEY......................
 
 
SKY/WX - SKY CONDITION/PRESENT WEATHER  
TMP - TEMPERATURE IN FAHRENHEIT  
DWPT - DEWPOINT IN FAHRENHEIT  
RH - RELATIVE HUMIDITY IN PERCENT  
WIND - DIRECTION AND SPEED IN MPH  
PRES - MEAN SEA LEVEL PRESSURE IN INCHES OF HG  
WCI - WIND CHILL INDEX  
VSB - VISIBILITY IN MILES  
HX - HEAT INDEX  
TC - TEMPERATURE IN CELSIUS  
VRB - VARIABLE WIND DIRECTION  
N/A - NOT AVAILABLE  
 
 
CLICK HERE TO GO TO PREVIOUS BULLETINS.

The Nexlab MA Page
The Nexlab RI Page
The Nexlab NH Page
The Nexlab CT Page Main Text Page